Nyk Olympus — 3EOS7 — position and weather

sailwx.info

Track history (hours):
 
Tides and Currents Weather Stations Pressure Air Temp Water Temp Dewpoint Dewpoint Depression Visibility Wind Speed Wind Dir Waves Ship Positions

Nyk Olympus

Last reported at 2014-Oct-22 07:15 UTC. Time now 2014-Oct-26 04:26 UTC.
Position N 01°11' E 103°48'.

Length 335 m; draft 12.3 m.

Type: Ship. MMSI: 372478000.

Date/timePositionNaut miles runAvg speedWind from/ knotsBaromVisibWave heightAir tempDewpointWater temp
2014-Oct-22 07:15N 01°11' E 103°48'5 7.2
2014-Oct-22 06:33N 01°14' E 103°52'3 1.0
2014-Oct-22 03:32N 01°16' E 103°50'0 0.0
2014-Oct-22 02:32N 01°16' E 103°50'0 0.0
2014-Oct-22 01:32N 01°16' E 103°50'0 0.0
2014-Oct-22 00:32N 01°16' E 103°50'0 0.0
2014-Oct-21 23:32N 01°16' E 103°50'0 0.0
2014-Oct-21 22:32N 01°16' E 103°50'0 0.0
2014-Oct-21 21:26N 01°16' E 103°50'0 0.1
2014-Oct-21 20:32N 01°16' E 103°50'0 0.1
2014-Oct-21 19:32N 01°16' E 103°50'0 0.0
2014-Oct-21 18:32N 01°16' E 103°50'0 0.0
2014-Oct-21 17:32N 01°16' E 103°50'0 0.1
2014-Oct-21 16:32N 01°16' E 103°50'0 0.1
2014-Oct-21 15:32N 01°16' E 103°50'0 0.0
2014-Oct-21 14:29N 01°16' E 103°50'0 0.0
2014-Oct-21 13:32N 01°16' E 103°50'0 0.0
2014-Oct-21 12:32N 01°16' E 103°50'0 0.0
2014-Oct-21 11:32N 01°16' E 103°50'0 0.0
2014-Oct-21 10:26N 01°16' E 103°50'0 0.0
2014-Oct-21 09:32N 01°16' E 103°50'0 0.0
2014-Oct-21 08:32N 01°16' E 103°50'0 0.0
2014-Oct-21 07:32N 01°16' E 103°50'0 0.0
2014-Oct-21 06:26N 01°16' E 103°50'0 0.1
2014-Oct-21 05:32N 01°16' E 103°50'0 0.1
2014-Oct-21 04:32N 01°16' E 103°50'0 0.0
2014-Oct-21 03:32N 01°16' E 103°50'0 0.0
2014-Oct-21 02:32N 01°16' E 103°50'0 0.0
2014-Oct-21 01:32N 01°16' E 103°50'0 0.2
2014-Oct-21 00:33N 01°16' E 103°50'3 2.7
2014-Oct-20 23:33N 01°14' E 103°52'3 2.6
2014-Oct-20 22:33N 01°14' E 103°55'7 7.3
2014-Oct-20 21:33N 01°16' E 104°02'1413.6
2014-Oct-20 20:33N 01°18' E 104°16'  
2014-Oct-16 08:06N 22°18' E 114°06'3 0.1
2014-Oct-15 05:19N 22°20' E 114°08'3 3.1
2014-Oct-15 04:29N 22°18' E 114°06'8 6.9
2014-Oct-15 03:17N 22°11' E 114°12'  
Track history (hours):
 
Tides and Currents Weather Stations Pressure Air Temp Water Temp Dewpoint Dewpoint Depression Visibility Wind Speed Wind Dir Waves Ship Positions

Nyk Olympus

Last reported at 2014-Oct-22 07:15 UTC. Time now 2014-Oct-26 04:26 UTC.
Position N 01°11' E 103°48'.

Length 335 m; draft 12.3 m.

Type: Ship. MMSI: 372478000.

Date/timePositionNaut miles runAvg speedWind from/ knotsBaromVisibWave heightAir tempDewpointWater temp
2014-Oct-22 07:15N 01°11' E 103°48'5 7.2
2014-Oct-22 06:33N 01°14' E 103°52'3 1.0
2014-Oct-22 03:32N 01°16' E 103°50'0 0.0
2014-Oct-22 02:32N 01°16' E 103°50'0 0.0
2014-Oct-22 01:32N 01°16' E 103°50'0 0.0
2014-Oct-22 00:32N 01°16' E 103°50'0 0.0
2014-Oct-21 23:32N 01°16' E 103°50'0 0.0
2014-Oct-21 22:32N 01°16' E 103°50'0 0.0
2014-Oct-21 21:26N 01°16' E 103°50'0 0.1
2014-Oct-21 20:32N 01°16' E 103°50'0 0.1
2014-Oct-21 19:32N 01°16' E 103°50'0 0.0
2014-Oct-21 18:32N 01°16' E 103°50'0 0.0
2014-Oct-21 17:32N 01°16' E 103°50'0 0.1
2014-Oct-21 16:32N 01°16' E 103°50'0 0.1
2014-Oct-21 15:32N 01°16' E 103°50'0 0.0
2014-Oct-21 14:29N 01°16' E 103°50'0 0.0
2014-Oct-21 13:32N 01°16' E 103°50'0 0.0
2014-Oct-21 12:32N 01°16' E 103°50'0 0.0
2014-Oct-21 11:32N 01°16' E 103°50'0 0.0
2014-Oct-21 10:26N 01°16' E 103°50'0 0.0
2014-Oct-21 09:32N 01°16' E 103°50'0 0.0
2014-Oct-21 08:32N 01°16' E 103°50'0 0.0
2014-Oct-21 07:32N 01°16' E 103°50'0 0.0
2014-Oct-21 06:26N 01°16' E 103°50'0 0.1
2014-Oct-21 05:32N 01°16' E 103°50'0 0.1
2014-Oct-21 04:32N 01°16' E 103°50'0 0.0
2014-Oct-21 03:32N 01°16' E 103°50'0 0.0
2014-Oct-21 02:32N 01°16' E 103°50'0 0.0
2014-Oct-21 01:32N 01°16' E 103°50'0 0.2
2014-Oct-21 00:33N 01°16' E 103°50'3 2.7
2014-Oct-20 23:33N 01°14' E 103°52'3 2.6
2014-Oct-20 22:33N 01°14' E 103°55'7 7.3
2014-Oct-20 21:33N 01°16' E 104°02'1413.6
2014-Oct-20 20:33N 01°18' E 104°16'  
2014-Oct-16 08:06N 22°18' E 114°06'3 0.1
2014-Oct-15 05:19N 22°20' E 114°08'3 3.1
2014-Oct-15 04:29N 22°18' E 114°06'8 6.9
2014-Oct-15 03:17N 22°11' E 114°12'  

Dump ship's entire track history